Total_Precipitation_Accumulation
0.00 0.00 0.01 0.02 0.03 0.02 0.03 0.08 0.09 0.08 0.08 0.11 0.17 0.21 0.37 0.42 0.48 0.56 0.55 0.71 0.81 0.85 1.13 1.38 1.84 2.55 2.83 3.30 3.23 2.87 2.65 2.59 2.53 2.50 2.55 2.60 2.79 2.97 3.11 3.18 3.04 2.96 2.90 2.90
0.00 0.00 0.00 0.01 0.03 0.02 0.03 0.06 0.07 0.08 0.08 0.11 0.19 0.28 0.42 0.55 0.60 0.63 0.64 0.77 0.78 0.83 1.21 1.60 1.99 2.37 2.59 2.68 2.77 2.99 2.98 2.88 2.76 2.82 3.12 3.54 3.80 3.85 3.93 3.87 3.79 3.66 3.57 3.51
0.01 0.00 0.00 0.00 0.02 0.02 0.02 0.03 0.05 0.08 0.10 0.13 0.24 0.44 0.51 0.60 0.72 0.66 0.59 0.65 0.75 0.91 1.17 1.46 1.81 2.07 2.38 2.69 2.81 3.03 3.12 3.23 3.38 3.59 3.81 4.27 4.60 4.60 4.45 4.09 3.92 3.74 3.48 3.34
0.00 0.00 0.00 0.00 0.01 0.01 0.02 0.02 0.05 0.07 0.08 0.15 0.22 0.49 0.65 0.72 0.75 0.75 0.69 0.70 0.84 1.00 1.20 1.33 1.49 1.66 1.93 2.24 2.53 2.78 2.98 3.25 3.66 4.23 4.55 4.66 4.83 4.79 4.65 4.32 3.94 3.57 3.27 3.04
0.00 0.00 0.00 0.00 0.01 0.01 0.02 0.02 0.03 0.05 0.06 0.16 0.22 0.38 0.79 0.88 0.81 0.81 0.81 0.85 1.01 1.01 1.11 1.18 1.14 1.27 1.56 1.83 2.04 2.40 2.74 3.13 3.69 4.18 4.61 4.83 4.81 4.62 4.43 4.01 3.60 3.29 3.04 2.78
0.01 0.01 0.01 0.01 0.01 0.01 0.01 0.02 0.04 0.06 0.09 0.21 0.20 0.32 0.74 0.97 0.93 0.81 0.75 0.86 1.01 0.95 0.88 0.91 0.95 1.02 1.23 1.44 1.67 1.95 2.35 2.93 3.37 3.78 4.19 4.34 4.36 4.23 4.00 3.61 3.27 3.03 2.82 2.60
0.02 0.02 0.01 0.01 0.01 0.01 0.02 0.04 0.13 0.21 0.24 0.28 0.19 0.36 0.80 1.00 1.03 0.95 0.94 1.03 0.99 0.85 0.75 0.82 0.85 0.98 1.18 1.35 1.60 1.86 2.21 2.63 2.86 3.00 3.23 3.46 3.51 3.48 3.44 3.28 2.99 2.71 2.43 2.12
0.08 0.06 0.02 0.01 0.02 0.02 0.03 0.04 0.19 0.35 0.33 0.31 0.33 0.66 1.08 1.12 1.11 1.04 0.97 0.94 0.88 0.87 0.88 0.90 0.98 1.09 1.29 1.39 1.47 1.62 1.83 2.09 2.23 2.23 2.39 2.59 2.70 2.72 2.69 2.55 2.33 2.08 1.86 1.66
0.10 0.09 0.03 0.02 0.02 0.03 0.02 0.03 0.06 0.12 0.16 0.31 0.60 1.00 1.29 1.29 1.30 1.30 1.19 1.04 0.91 0.86 0.91 0.95 0.97 1.08 1.30 1.38 1.43 1.41 1.38 1.47 1.56 1.62 1.69 1.73 1.77 1.81 1.81 1.74 1.62 1.52 1.38 1.23
0.06 0.08 0.04 0.03 0.02 0.03 0.03 0.04 0.06 0.10 0.25 0.44 0.66 1.12 1.64 1.66 1.49 1.42 1.33 1.13 1.00 0.92 0.90 0.94 0.95 0.96 1.01 1.07 1.16 1.16 1.03 1.06 1.12 1.11 1.10 1.14 1.22 1.31 1.30 1.16 1.11 1.08 1.04 0.96
0.03 0.06 0.05 0.05 0.04 0.04 0.04 0.05 0.06 0.10 0.17 0.35 0.65 1.17 1.44 1.60 1.51 1.38 1.30 1.17 0.98 0.93 0.90 0.87 0.86 0.80 0.74 0.74 0.79 0.87 0.83 0.82 0.82 0.84 0.86 0.85 0.87 0.92 0.95 0.91 0.84 0.80 0.76 0.74
0.04 0.08 0.12 0.10 0.07 0.05 0.06 0.07 0.07 0.14 0.19 0.25 0.53 1.13 1.21 1.44 1.59 1.59 1.41 1.22 1.14 1.01 0.93 0.87 0.86 0.81 0.76 0.71 0.70 0.71 0.72 0.73 0.71 0.68 0.70 0.71 0.70 0.69 0.70 0.73 0.72 0.68 0.67 0.66
0.06 0.14 0.30 0.36 0.25 0.13 0.10 0.09 0.10 0.12 0.21 0.29 0.54 1.15 1.26 1.41 1.61 1.63 1.44 1.32 1.28 1.21 1.13 1.03 0.94 0.87 0.82 0.75 0.69 0.64 0.66 0.70 0.68 0.62 0.62 0.60 0.60 0.58 0.58 0.59 0.58 0.56 0.56 0.57
0.05 0.15 0.37 0.64 0.53 0.26 0.16 0.13 0.16 0.18 0.29 0.36 0.56 0.98 1.23 1.39 1.57 1.64 1.56 1.36 1.30 1.32 1.25 1.09 1.00 0.91 0.85 0.80 0.75 0.71 0.69 0.67 0.63 0.60 0.59 0.56 0.58 0.57 0.55 0.52 0.51 0.50 0.50 0.53
0.09 0.19 0.23 0.28 0.28 0.24 0.19 0.18 0.18 0.21 0.27 0.44 0.67 0.98 1.32 1.44 1.61 1.77 1.80 1.64 1.47 1.41 1.31 1.14 1.09 1.05 0.95 0.93 0.88 0.82 0.76 0.71 0.64 0.60 0.58 0.59 0.61 0.61 0.60 0.60 0.58 0.57 0.54 0.50
0.10 0.19 0.23 0.26 0.25 0.27 0.24 0.22 0.20 0.25 0.32 0.48 0.74 1.12 1.41 1.52 1.59 1.70 1.77 1.68 1.57 1.54 1.51 1.49 1.46 1.42 1.28 1.15 1.06 0.96 0.85 0.79 0.73 0.72 0.70 0.68 0.65 0.61 0.61 0.60 0.59 0.60 0.58 0.55
0.11 0.19 0.28 0.31 0.22 0.33 0.51 0.39 0.34 0.40 0.45 0.59 0.85 1.06 1.20 1.36 1.54 1.57 1.59 1.69 1.69 1.75 1.83 1.83 1.72 1.59 1.44 1.33 1.26 1.17 1.04 0.95 0.91 0.88 0.82 0.73 0.65 0.62 0.58 0.53 0.56 0.60 0.58 0.53
0.13 0.24 0.33 0.39 0.42 0.70 0.67 0.40 0.40 0.55 0.65 0.67 0.74 0.80 0.99 1.24 1.38 1.38 1.46 1.66 1.74 1.73 1.72 1.70 1.59 1.48 1.39 1.34 1.27 1.15 1.03 0.97 0.91 0.87 0.80 0.70 0.60 0.58 0.58 0.58 0.59 0.57 0.53 0.50
0.10 0.25 0.41 0.50 0.70 0.78 0.77 0.49 0.45 0.64 0.84 0.68 0.74 0.76 0.89 1.00 1.16 1.39 1.47 1.59 1.74 1.64 1.58 1.61 1.59 1.49 1.43 1.36 1.23 1.14 1.06 0.95 0.90 0.85 0.71 0.58 0.51 0.51 0.52 0.52 0.52 0.51 0.50 0.49
0.12 0.22 0.47 0.63 0.83 0.96 0.87 0.46 0.36 0.64 1.16 0.85 0.83 0.85 0.87 0.96 1.25 1.37 1.33 1.29 1.35 1.39 1.43 1.54 1.65 1.67 1.59 1.44 1.19 1.10 1.03 0.90 0.78 0.66 0.55 0.49 0.45 0.42 0.40 0.40 0.44 0.45 0.46 0.43
0.36 0.40 0.53 0.76 1.04 1.10 0.57 0.29 0.42 0.93 1.15 0.96 0.90 0.91 0.90 1.02 1.11 1.01 1.00 1.10 1.21 1.33 1.42 1.47 1.53 1.52 1.44 1.31 1.12 1.05 0.96 0.82 0.64 0.51 0.46 0.46 0.40 0.32 0.30 0.35 0.40 0.41 0.37 0.37
0.56 0.68 0.76 0.86 1.11 1.19 0.51 0.36 0.59 0.74 0.64 0.63 0.66 0.70 0.73 0.80 0.84 0.90 0.93 0.99 1.07 1.19 1.29 1.29 1.28 1.23 1.12 1.01 0.93 0.92 0.84 0.64 0.48 0.43 0.42 0.40 0.34 0.21 0.20 0.30 0.33 0.32 0.34 0.34
0.54 0.64 0.80 0.98 1.13 0.81 0.45 0.41 0.42 0.47 0.48 0.47 0.54 0.56 0.60 0.65 0.74 0.88 1.00 1.04 1.04 1.02 1.04 1.00 0.92 0.87 0.85 0.80 0.76 0.72 0.62 0.47 0.41 0.41 0.42 0.37 0.31 0.25 0.20 0.24 0.27 0.27 0.29 0.26
0.69 0.52 0.64 0.84 0.90 0.64 0.43 0.36 0.35 0.35 0.35 0.39 0.48 0.53 0.51 0.53 0.56 0.67 0.76 0.84 0.86 0.85 0.80 0.75 0.68 0.65 0.63 0.60 0.56 0.52 0.42 0.38 0.41 0.43 0.40 0.39 0.37 0.30 0.23 0.20 0.17 0.18 0.21 0.22
0.67 0.68 0.80 0.92 0.90 0.71 0.57 0.42 0.35 0.34 0.35 0.41 0.46 0.45 0.42 0.39 0.41 0.47 0.56 0.60 0.62 0.60 0.56 0.53 0.52 0.49 0.45 0.40 0.38 0.36 0.33 0.32 0.38 0.36 0.31 0.28 0.25 0.24 0.23 0.18 0.10 0.09 0.11 0.10
0.54 0.64 0.86 1.01 0.82 0.70 0.62 0.49 0.39 0.36 0.35 0.35 0.32 0.32 0.36 0.37 0.37 0.41 0.47 0.51 0.50 0.45 0.44 0.46 0.47 0.43 0.40 0.36 0.30 0.25 0.22 0.24 0.32 0.30 0.24 0.18 0.15 0.14 0.14 0.19 0.14 0.06 0.04 0.04